Wind_Speed
21 21 21 21 20 21 23 23 24 24 24 24 24 23 23 24 24 24 25 26 28 28 30 32 33 35 35 36 36 38 39 40 41 42 44 45 45 45 43 43 43 44 44 44
21 21 22 21 21 22 22 22 24 25 25 26 25 24 24 24 24 24 25 26 27 28 29 30 32 33 34 34 35 35 37 38 39 40 40 41 42 42 41 41 41 42 43 42
21 22 22 21 21 23 24 24 24 25 25 26 25 25 25 24 24 24 24 24 26 28 29 30 31 32 33 34 35 36 36 36 37 37 37 38 40 41 41 41 40 40 40 41
22 23 22 20 22 23 24 24 25 25 25 25 25 25 25 25 25 25 25 24 24 25 27 28 30 31 32 32 33 34 35 35 34 35 36 37 39 40 40 40 39 39 40 40
23 24 23 21 23 23 24 23 24 25 25 26 26 26 26 26 26 26 27 27 26 26 26 27 28 29 31 32 33 34 34 34 35 34 35 35 37 37 37 38 39 39 39 39
25 25 25 24 24 24 25 24 24 25 24 24 25 25 25 26 27 27 28 29 29 28 28 28 28 29 29 30 31 32 33 33 34 35 33 33 33 34 35 36 38 38 37 37
25 26 25 25 25 25 25 25 25 25 24 24 24 24 25 25 26 27 27 27 27 27 27 28 28 28 28 29 30 31 31 31 32 32 32 32 32 33 34 35 36 36 36 35
26 25 25 25 25 25 26 26 25 26 26 27 27 26 26 26 26 26 26 26 27 27 27 27 27 27 28 29 29 30 30 30 30 30 31 31 31 32 33 35 36 36 36 35
26 25 25 26 26 26 26 26 26 26 26 27 28 27 27 27 27 27 27 27 27 28 28 28 28 28 28 28 28 28 28 28 29 29 30 31 31 31 32 33 34 35 35 34
26 25 25 26 26 27 27 26 26 26 27 27 27 27 27 28 29 29 28 28 28 28 29 29 29 29 28 28 27 27 27 28 29 30 30 31 31 31 31 31 31 32 32 33
27 26 26 25 26 27 27 27 27 27 28 27 27 27 27 27 28 29 29 28 28 28 27 28 29 30 29 29 28 28 28 28 29 29 29 30 30 30 31 31 31 30 30 31
27 27 27 26 27 28 28 28 28 28 28 28 27 28 28 28 28 28 28 28 28 28 28 29 29 30 30 30 29 29 29 29 29 29 29 29 30 30 30 30 30 30 29 29
28 28 28 28 29 29 29 29 29 29 28 28 28 28 29 28 28 28 28 28 28 28 29 29 29 29 29 28 28 28 29 29 29 29 29 29 29 29 29 29 29 29 29 28
27 28 29 29 29 30 30 29 29 29 29 29 29 30 30 29 29 28 28 28 28 28 28 28 28 28 28 27 27 27 27 27 28 28 29 28 28 28 28 28 28 27 27 27
28 28 29 29 30 30 30 30 29 29 29 29 29 30 30 29 28 28 28 28 28 27 27 27 27 27 26 26 25 25 25 25 25 25 26 26 26 26 26 26 26 26 26 26
29 29 29 29 30 30 30 30 29 29 29 29 29 29 28 28 28 28 28 27 27 26 26 26 26 25 24 24 24 23 23 23 22 22 22 23 23 24 24 24 25 25 25 25
29 29 29 29 29 29 29 29 29 29 29 28 28 28 27 27 27 26 26 26 25 25 25 24 24 23 22 22 22 22 21 21 20 19 19 20 20 21 22 22 23 23 23 23
28 29 29 30 29 29 29 28 28 29 28 28 28 28 27 27 27 26 25 24 23 23 22 22 21 21 20 20 20 20 20 19 18 18 18 18 18 19 20 20 20 20 21 21
28 28 29 29 29 29 28 28 28 28 28 28 27 27 26 26 26 25 24 24 23 22 22 21 20 20 19 19 19 18 18 18 18 17 17 16 16 16 17 17 17 18 18 19
27 28 29 29 29 28 28 27 28 28 27 27 27 26 25 24 23 23 23 23 22 21 20 19 19 18 18 18 17 16 16 17 16 16 15 15 15 15 15 15 16 16 17 17
27 28 29 29 29 28 27 27 27 27 26 25 24 24 23 22 22 22 21 20 19 18 18 17 17 17 17 16 16 15 15 15 15 15 14 14 14 14 14 14 14 15 15 15
28 29 29 28 28 27 26 26 26 25 25 24 23 22 22 21 21 21 20 19 18 17 16 16 16 16 15 15 15 14 14 14 14 13 13 13 13 13 13 13 13 13 13 14
29 28 28 27 27 27 26 25 25 24 23 23 22 22 21 20 20 19 19 18 17 17 16 16 15 14 14 14 13 13 13 13 12 12 12 13 12 12 12 12 12 12 13 13
29 28 27 27 27 27 26 25 24 24 23 23 22 21 21 20 19 19 18 17 17 16 16 16 15 15 14 14 13 13 12 12 12 12 12 12 12 12 12 12 12 12 12 12
28 27 27 26 26 26 25 24 23 23 23 22 21 20 19 19 17 17 16 15 15 14 14 14 13 13 13 13 12 12 11 11 11 11 11 12 12 11 11 11 11 10 11 12
27 26 26 26 25 25 24 24 23 22 22 21 19 18 18 17 16 16 15 14 13 13 12 12 12 12 12 11 11 10 10 10 11 11 11 11 11 11 11 10 10 10 10 11
26 26 25 25 24 24 23 22 22 21 19 18 16 16 16 16 15 14 13 13 12 11 11 11 11 11 11 11 10 10 10 11 11 11 11 11 11 10 10 10 10 10 10 10
Wind_Direction
296 291 293 292 291 291 289 288 288 289 289 292 293 291 286 281 278 275 271 268 263 262 260 258 257 257 258 258 260 260 260 261 261 260 259 258 257 258 259 258 258 260 260 260
300 293 290 289 288 288 289 290 291 290 290 290 291 290 289 285 279 276 276 272 267 265 263 262 260 258 259 260 261 262 262 262 261 261 260 258 256 256 257 257 258 259 258 259
305 300 293 289 290 288 287 289 292 292 292 290 287 288 289 286 283 278 279 274 272 271 268 267 264 261 260 263 263 263 263 262 261 262 261 258 257 258 257 256 255 256 258 258
308 306 299 297 293 291 291 291 291 291 291 290 288 288 287 285 284 280 280 278 275 273 272 269 266 264 263 265 265 265 264 262 262 262 261 260 259 258 257 255 255 256 257 258
305 305 304 301 299 297 295 295 295 294 291 289 287 287 285 284 284 282 281 280 278 277 274 271 268 267 266 266 266 266 265 263 263 263 263 262 260 258 256 255 254 255 256 257
301 302 304 303 300 298 296 295 294 295 295 293 289 287 285 283 283 283 281 281 280 278 275 272 271 271 271 269 268 267 266 265 264 264 263 260 259 257 255 254 255 256 256 255
299 301 303 304 301 300 297 296 293 292 292 293 291 289 288 286 285 286 283 280 277 277 275 273 272 273 273 272 270 269 267 265 265 263 261 261 261 259 257 255 255 256 256 255
296 299 302 303 301 298 296 295 292 292 291 290 290 289 287 287 288 286 283 280 276 275 274 274 275 275 274 274 273 271 268 267 265 262 261 262 262 261 260 258 257 256 256 256
294 297 298 297 299 297 295 294 293 292 291 290 291 290 289 288 287 285 283 280 278 275 275 275 275 274 275 274 273 271 269 267 265 263 263 262 263 264 262 261 259 257 255 255
292 295 295 296 296 296 295 293 292 292 292 293 294 293 292 289 288 287 283 280 279 278 276 275 275 274 275 274 272 270 268 266 265 265 264 264 264 264 263 261 260 258 257 255
292 291 291 292 294 295 294 292 292 292 293 294 295 294 293 291 289 288 285 282 279 277 275 276 275 275 274 274 272 270 268 268 268 267 266 265 264 264 263 261 259 259 257 257
292 290 289 290 291 292 293 291 291 292 292 295 295 295 294 293 291 289 286 283 280 278 277 276 276 275 274 274 272 270 270 269 269 268 267 266 266 264 262 260 258 258 257 257
292 291 290 290 291 292 293 292 291 291 293 296 296 296 295 295 293 290 287 284 280 279 278 277 276 275 275 274 273 272 272 271 269 269 268 267 266 264 261 258 256 256 256 256
292 291 291 291 292 292 293 293 293 292 292 294 295 295 294 294 293 290 288 285 282 279 278 277 276 276 276 274 273 273 273 272 271 270 268 266 265 263 260 257 256 255 255 255
292 291 292 293 293 291 291 292 292 292 292 291 292 293 293 292 291 290 289 286 283 280 278 277 276 276 275 272 272 273 273 273 272 271 268 265 263 261 259 256 254 253 253 254
294 294 294 294 294 293 292 291 291 292 292 291 291 293 293 291 291 289 288 286 284 281 279 278 276 275 273 271 272 273 272 271 270 269 268 264 260 258 258 255 254 252 250 251
295 295 296 297 296 296 294 292 291 292 293 292 291 291 291 291 291 290 288 286 283 281 279 279 277 275 274 273 272 272 272 271 269 269 270 266 261 259 258 256 254 251 249 249
295 296 298 298 298 297 295 294 293 293 291 291 291 290 291 291 291 290 288 286 282 279 278 277 274 273 273 273 272 270 268 267 268 269 270 268 263 259 258 255 253 249 246 246
296 296 297 298 299 299 297 295 294 295 293 290 289 291 292 292 291 289 288 286 281 277 275 273 272 272 272 273 273 269 265 265 267 268 268 265 262 259 256 252 250 246 245 246
296 297 298 299 299 299 297 296 296 297 295 292 290 289 289 289 289 289 288 285 281 277 275 273 272 272 272 272 270 267 265 265 263 264 264 260 258 257 255 253 250 247 247 248
297 299 299 299 299 299 298 297 298 297 296 293 292 291 289 287 287 288 287 284 280 277 275 274 273 274 272 270 268 268 266 263 262 261 258 256 255 255 254 252 251 249 248 249
298 299 299 299 299 299 298 298 298 297 296 295 294 292 290 288 287 287 286 281 277 275 273 271 272 274 272 269 266 265 264 262 260 257 253 251 252 251 249 248 248 248 248 248
298 298 298 298 299 299 298 298 298 297 296 296 294 293 291 289 288 287 284 279 273 271 269 267 269 271 270 267 263 261 262 261 257 253 249 247 246 246 245 245 247 249 247 247
298 298 298 298 299 299 297 297 297 296 295 295 293 292 290 289 288 287 284 277 271 269 267 266 266 266 265 263 262 262 262 258 252 246 244 243 242 242 244 245 247 248 246 245
299 298 297 297 298 298 298 296 296 296 295 294 291 289 289 288 287 286 283 277 271 268 265 264 264 263 260 258 259 259 256 252 247 243 241 238 237 239 240 240 240 243 245 245
299 297 296 296 296 297 296 293 293 293 294 293 290 288 288 287 286 285 281 275 270 266 262 259 257 255 253 252 253 252 248 242 238 236 236 235 234 234 236 236 239 243 246 247
299 297 295 295 296 296 294 291 290 290 290 290 289 289 289 287 285 283 278 273 267 261 256 253 251 249 247 247 248 246 241 236 233 233 232 231 229 231 234 236 239 240 243 245
Height
5617 5615 5614 5613 5611 5609 5607 5605 5603 5602 5600 5598 5595 5593 5591 5589 5587 5586 5586 5587 5587 5587 5587 5588 5589 5590 5592 5593 5594 5595 5597 5598 5599 5601 5603 5605 5608 5610 5612 5614 5617 5619 5621 5623
5613 5611 5608 5607 5607 5604 5602 5600 5598 5596 5595 5593 5589 5587 5585 5583 5582 5581 5580 5580 5580 5580 5580 5581 5581 5582 5584 5585 5585 5586 5587 5588 5589 5590 5592 5594 5596 5599 5601 5603 5606 5608 5609 5611
5608 5606 5603 5603 5602 5599 5597 5596 5593 5591 5590 5586 5584 5582 5580 5578 5576 5575 5574 5574 5573 5573 5573 5573 5574 5574 5576 5576 5577 5577 5578 5579 5580 5581 5582 5584 5586 5588 5590 5592 5594 5596 5598 5601
5603 5601 5598 5601 5596 5594 5591 5590 5587 5585 5583 5580 5577 5576 5574 5572 5571 5570 5569 5568 5567 5567 5566 5566 5566 5567 5567 5568 5568 5569 5569 5570 5570 5571 5573 5574 5575 5577 5579 5581 5584 5586 5588 5590
5597 5594 5593 5594 5591 5588 5585 5584 5581 5579 5577 5574 5571 5570 5569 5567 5565 5564 5563 5562 5561 5560 5559 5559 5559 5559 5559 5560 5560 5560 5560 5561 5562 5562 5563 5564 5565 5567 5569 5571 5574 5576 5578 5580
5592 5588 5587 5589 5585 5581 5580 5578 5576 5573 5570 5568 5565 5564 5564 5561 5558 5557 5556 5554 5553 5553 5552 5552 5551 5551 5551 5551 5551 5551 5551 5552 5552 5553 5554 5555 5556 5557 5559 5561 5563 5566 5568 5570
5586 5583 5581 5582 5578 5575 5574 5573 5569 5566 5564 5562 5560 5558 5556 5553 5551 5550 5548 5547 5546 5545 5545 5544 5544 5544 5543 5543 5542 5542 5542 5543 5544 5544 5545 5546 5548 5549 5550 5552 5554 5556 5559 5561
5580 5578 5578 5575 5571 5569 5567 5564 5562 5559 5557 5555 5553 5550 5549 5546 5544 5542 5541 5540 5539 5538 5538 5537 5536 5536 5536 5535 5534 5534 5534 5535 5536 5536 5537 5538 5539 5540 5541 5542 5544 5547 5549 5551
5575 5574 5571 5567 5565 5562 5560 5557 5555 5552 5550 5548 5545 5543 5541 5539 5537 5535 5533 5532 5531 5531 5530 5529 5528 5528 5528 5527 5527 5526 5527 5527 5527 5528 5529 5529 5530 5531 5532 5533 5535 5537 5539 5541
5568 5567 5564 5561 5558 5555 5553 5550 5548 5545 5543 5540 5538 5536 5533 5531 5529 5527 5526 5524 5523 5523 5522 5521 5520 5520 5519 5519 5519 5519 5519 5519 5519 5520 5520 5521 5521 5522 5523 5524 5526 5527 5529 5532
5561 5560 5557 5555 5551 5549 5546 5543 5541 5539 5536 5533 5531 5528 5526 5523 5522 5520 5518 5516 5515 5515 5514 5513 5512 5511 5510 5510 5510 5510 5510 5510 5511 5511 5511 5512 5512 5513 5514 5515 5517 5519 5521 5522
5554 5552 5549 5547 5544 5541 5539 5536 5534 5532 5529 5526 5523 5521 5519 5516 5514 5512 5510 5508 5507 5506 5505 5505 5504 5503 5502 5501 5501 5501 5501 5501 5502 5502 5502 5503 5503 5504 5505 5507 5508 5510 5512 5514
5546 5543 5541 5539 5537 5534 5531 5529 5527 5524 5522 5519 5516 5514 5511 5509 5506 5504 5502 5500 5499 5498 5497 5496 5495 5494 5493 5493 5493 5492 5492 5492 5492 5493 5493 5494 5495 5496 5497 5498 5499 5501 5503 5505
5538 5535 5533 5531 5529 5526 5524 5521 5519 5516 5514 5511 5509 5506 5503 5501 5498 5496 5494 5492 5490 5489 5488 5487 5486 5486 5485 5485 5485 5484 5484 5484 5484 5484 5485 5485 5486 5487 5488 5490 5491 5493 5494 5496
5530 5528 5525 5523 5520 5518 5515 5513 5510 5508 5505 5503 5500 5497 5495 5492 5490 5487 5485 5483 5482 5480 5479 5478 5478 5477 5476 5476 5476 5476 5476 5475 5475 5476 5476 5476 5477 5478 5480 5481 5483 5484 5486 5488
5522 5520 5517 5514 5512 5509 5506 5504 5502 5499 5497 5495 5492 5489 5487 5484 5482 5479 5477 5475 5473 5472 5471 5470 5469 5469 5468 5468 5468 5468 5468 5468 5467 5468 5468 5468 5469 5470 5471 5473 5474 5476 5478 5481
5514 5511 5508 5506 5503 5500 5498 5495 5493 5490 5488 5486 5483 5481 5479 5476 5474 5471 5469 5467 5465 5464 5463 5462 5462 5461 5461 5460 5460 5460 5461 5461 5461 5461 5461 5461 5462 5463 5464 5465 5467 5469 5471 5474
5505 5503 5500 5497 5494 5492 5489 5487 5484 5482 5479 5477 5475 5473 5471 5468 5466 5464 5462 5460 5458 5457 5456 5455 5454 5454 5454 5454 5454 5454 5454 5454 5455 5455 5455 5455 5456 5457 5458 5459 5460 5462 5465 5467
5497 5494 5492 5489 5486 5483 5481 5478 5476 5473 5471 5469 5467 5465 5462 5460 5459 5457 5455 5453 5451 5450 5450 5449 5448 5448 5448 5448 5448 5448 5448 5448 5449 5449 5449 5450 5451 5451 5452 5454 5455 5457 5459 5461
5489 5486 5483 5481 5478 5475 5473 5470 5468 5465 5463 5460 5458 5457 5455 5453 5451 5450 5448 5446 5444 5443 5443 5443 5442 5442 5442 5442 5442 5442 5442 5443 5443 5444 5444 5445 5446 5447 5448 5449 5451 5453 5454 5456
5481 5478 5475 5472 5470 5467 5465 5462 5460 5457 5455 5453 5451 5449 5448 5446 5444 5443 5441 5440 5438 5437 5437 5437 5437 5436 5436 5436 5436 5437 5437 5438 5438 5439 5440 5441 5442 5443 5444 5445 5447 5448 5450 5452
5473 5470 5467 5464 5462 5459 5457 5455 5452 5450 5448 5446 5444 5442 5441 5439 5438 5436 5434 5433 5433 5432 5432 5431 5431 5431 5431 5431 5431 5432 5432 5433 5434 5434 5435 5437 5438 5439 5440 5442 5443 5445 5446 5448
5465 5462 5459 5457 5454 5452 5450 5448 5445 5443 5441 5439 5437 5436 5434 5432 5431 5430 5429 5428 5427 5427 5426 5426 5427 5427 5427 5427 5427 5428 5428 5429 5430 5431 5432 5433 5434 5436 5437 5439 5440 5441 5443 5444
5457 5454 5452 5449 5447 5445 5443 5441 5438 5436 5434 5432 5431 5429 5428 5426 5425 5423 5422 5422 5421 5421 5421 5421 5422 5422 5422 5423 5423 5424 5424 5425 5426 5427 5429 5430 5431 5433 5434 5436 5437 5438 5439 5441
5449 5446 5444 5442 5440 5438 5436 5434 5432 5430 5428 5426 5424 5423 5421 5420 5419 5418 5417 5416 5416 5416 5416 5417 5417 5418 5418 5419 5419 5420 5421 5422 5423 5424 5425 5427 5429 5430 5431 5433 5434 5435 5436 5438
5441 5439 5437 5434 5433 5431 5429 5427 5425 5423 5422 5420 5419 5417 5416 5415 5414 5413 5412 5412 5411 5412 5412 5412 5413 5414 5414 5415 5416 5416 5417 5418 5420 5421 5423 5424 5426 5427 5429 5430 5431 5432 5433 5435
5434 5431 5429 5427 5426 5424 5422 5420 5419 5417 5416 5415 5413 5412 5411 5410 5409 5408 5408 5407 5407 5408 5408 5409 5409 5410 5411 5412 5412 5413 5414 5416 5417 5418 5420 5421 5423 5424 5426 5427 5428 5430 5431 5432